Simultaneous Nadir Overpasses (SNOs) Predictions

Prediction of SNOs between GOES-17 and NOAA-19 Satellite Orbit:

Table of predicted SNOs for the next 14.0 days since TLE Epoch: 10/29/2022
Index Date Time (GOES-17) GOES-17 Lat,Lon NOAA-19 Lat,Lon Distance(km) Time Diff (sec)
1 10/30/2022 05:04:25 0.05,-137.32 0.77,-134.30 345.35 80
2 11/01/2022 17:22:07 -0.05,-137.31 0.37,-139.13 207.14 80
3 11/02/2022 17:12:52 -0.04,-137.31 -0.27,-136.22 123.33 80
4 11/03/2022 17:00:59 -0.04,-137.30 -0.96,-133.32 453.69 80
5 11/05/2022 05:33:26 0.04,-137.28 -0.87,-141.09 435.73 80
6 11/06/2022 05:21:33 0.04,-137.27 -0.18,-138.20 105.62 80
7 11/07/2022 05:09:39 0.04,-137.26 0.50,-135.30 224.40 80
8 11/09/2022 17:27:19 -0.04,-137.24 0.62,-140.12 328.92 80
9 11/10/2022 17:18:05 -0.03,-137.22 -0.03,-137.21 0.82 80
10 11/11/2022 17:06:10 -0.03,-137.20 -0.68,-134.31 330.12 80
